CCA6335 ZHCC-ZUCK

Flight info

Callsign CCA6335
Flight time 1h 39m
Altitude 30100
Route NOP9W NOPIN B208 TAMIX W4 SHX DCT UGSUT W152 NSH W30 SANUK W180 AKBEK AKBEK7K
Aircraft B738/M-SDE2E3FGHIRWXY/LB1

Departure

Time 2026-05-09 06:52
Airport Zhengzhou Xinzheng International Airport (ZHCC)

Arrival

Time 2026-05-09 08:31
Airport Chongqing Jiangbei International Airport (ZUCK)
Time Latitude Longitude Altitude Speed Heading
2026-05-09 06:24 34.53152 113.85030 504 ft 0 kts 292°
2026-05-09 06:44 34.53151 113.85032 504 ft 2 kts 292°
2026-05-09 06:45 34.53142 113.85058 504 ft 2 kts 292°
2026-05-09 06:45 34.53130 113.85082 504 ft 4 kts 336°
2026-05-09 06:45 34.53107 113.85082 504 ft 4 kts 21°
2026-05-09 06:45 34.53097 113.85077 504 ft 1 kts 22°
2026-05-09 06:46 34.53096 113.85077 504 ft 0 kts 22°
2026-05-09 06:48 34.53100 113.85078 504 ft 2 kts 22°
2026-05-09 06:48 34.53138 113.85098 504 ft 10 kts 22°
2026-05-09 06:48 34.53223 113.85140 504 ft 17 kts 22°
2026-05-09 06:48 34.53323 113.85086 504 ft 21 kts 291°
2026-05-09 06:49 34.53363 113.84965 504 ft 23 kts 295°
2026-05-09 06:49 34.53431 113.84785 504 ft 25 kts 293°
2026-05-09 06:50 34.53498 113.84585 504 ft 26 kts 292°
2026-05-09 06:50 34.53569 113.84375 504 ft 28 kts 292°
2026-05-09 06:50 34.53642 113.84151 504 ft 29 kts 291°
2026-05-09 06:50 34.53756 113.83967 504 ft 28 kts
2026-05-09 06:51 34.53912 113.84052 503 ft 15 kts 31°
2026-05-09 06:51 34.53919 113.84166 502 ft 15 kts 114°
2026-05-09 06:51 34.53878 113.84282 502 ft 19 kts 112°
2026-05-09 06:51 34.53718 113.84745 501 ft 100 kts 112°
2026-05-09 06:52 34.53344 113.85797 499 ft 169 kts 116°
2026-05-09 06:52 34.52836 113.87248 937 ft 201 kts 114°
2026-05-09 06:52 34.52307 113.88988 1229 ft 238 kts 112°
2026-05-09 06:52 34.51836 113.90998 1673 ft 260 kts 107°
2026-05-09 06:53 34.51698 113.93215 2542 ft 262 kts 92°
2026-05-09 06:53 34.51662 113.95367 3550 ft 252 kts 88°
2026-05-09 06:53 34.52317 113.97273 4477 ft 245 kts 46°
2026-05-09 06:53 34.53735 113.98292 5290 ft 237 kts 14°
2026-05-09 06:54 34.55328 113.98893 5890 ft 243 kts 16°
2026-05-09 06:54 34.56960 113.99342 6484 ft 239 kts 351°
2026-05-09 06:54 34.58458 113.98644 6967 ft 235 kts 320°
2026-05-09 06:54 34.59748 113.97309 7184 ft 251 kts 312°
2026-05-09 06:55 34.60982 113.95794 7723 ft 253 kts 310°
2026-05-09 06:55 34.62210 113.94271 8369 ft 252 kts 310°
2026-05-09 06:55 34.63448 113.92760 8977 ft 254 kts 311°
2026-05-09 06:55 34.64706 113.91243 9576 ft 258 kts 313°
2026-05-09 06:56 34.65981 113.89717 10241 ft 256 kts 314°
2026-05-09 06:56 34.67285 113.88158 10666 ft 271 kts 314°
2026-05-09 06:56 34.68758 113.86566 10861 ft 296 kts 322°
2026-05-09 06:56 34.70538 113.85122 11038 ft 320 kts 326°
2026-05-09 06:57 34.72500 113.83642 11185 ft 343 kts 327°
2026-05-09 06:57 34.74591 113.82067 11342 ft 363 kts 327°
2026-05-09 06:57 34.76776 113.80397 11605 ft 377 kts 326°
2026-05-09 06:57 34.78987 113.78682 12146 ft 380 kts 326°
2026-05-09 06:58 34.81220 113.76933 12723 ft 384 kts 326°
2026-05-09 06:58 34.83477 113.75156 13340 ft 385 kts 326°
2026-05-09 06:58 34.85729 113.73385 13967 ft 387 kts 327°
2026-05-09 06:58 34.88148 113.71893 14365 ft 394 kts 338°
2026-05-09 06:59 34.90734 113.70761 14867 ft 396 kts 340°
2026-05-09 06:59 34.93313 113.69690 15440 ft 397 kts 340°
2026-05-09 06:59 34.95972 113.68584 15965 ft 400 kts 340°
2026-05-09 06:59 34.98580 113.67480 16458 ft 403 kts 339°
2026-05-09 07:00 35.01234 113.66338 16964 ft 406 kts 339°
2026-05-09 07:00 35.03901 113.65175 17468 ft 408 kts 339°
2026-05-09 07:00 35.06580 113.63997 17953 ft 411 kts 339°
2026-05-09 07:00 35.09279 113.62805 18416 ft 414 kts 338°
2026-05-09 07:01 35.11993 113.61602 18834 ft 416 kts 338°
2026-05-09 07:01 35.14723 113.60392 19262 ft 418 kts 338°
2026-05-09 07:01 35.17457 113.59179 19697 ft 420 kts 338°
2026-05-09 07:01 35.20215 113.57956 20119 ft 422 kts 338°
2026-05-09 07:02 35.22984 113.56727 20540 ft 424 kts 338°
2026-05-09 07:02 35.25766 113.55490 20951 ft 426 kts 338°
2026-05-09 07:02 35.28559 113.54248 21354 ft 429 kts 337°
2026-05-09 07:02 35.31370 113.52998 21747 ft 431 kts 337°
2026-05-09 07:03 35.34193 113.51741 22131 ft 433 kts 337°
2026-05-09 07:03 35.37034 113.50476 22497 ft 435 kts 337°
2026-05-09 07:03 35.39883 113.49206 22864 ft 437 kts 337°
2026-05-09 07:03 35.42751 113.47926 23214 ft 439 kts 337°
2026-05-09 07:04 35.45627 113.46645 23542 ft 441 kts 337°
2026-05-09 07:04 35.48523 113.45363 23797 ft 443 kts 335°
2026-05-09 07:04 35.51200 113.43565 24059 ft 438 kts 318°
2026-05-09 07:04 35.53263 113.40849 24411 ft 434 kts 303°
2026-05-09 07:05 35.54688 113.37604 24740 ft 433 kts 290°
2026-05-09 07:05 35.55423 113.34016 25048 ft 435 kts 277°
2026-05-09 07:05 35.55405 113.30304 25351 ft 438 kts 265°
2026-05-09 07:05 35.54681 113.26661 25639 ft 444 kts 251°
2026-05-09 07:06 35.53232 113.23275 25948 ft 449 kts 243°
2026-05-09 07:06 35.51603 113.20015 26344 ft 448 kts 242°
2026-05-09 07:06 35.49949 113.16784 26803 ft 445 kts 242°
2026-05-09 07:06 35.48310 113.13582 27286 ft 441 kts 242°
2026-05-09 07:07 35.46694 113.10398 27747 ft 438 kts 243°
2026-05-09 07:07 35.45097 113.07220 28144 ft 437 kts 243°
2026-05-09 07:07 35.43511 113.04041 28475 ft 437 kts 243°
2026-05-09 07:07 35.41933 113.00871 28941 ft 435 kts 243°
2026-05-09 07:08 35.40367 112.97722 29520 ft 431 kts 243°
2026-05-09 07:08 35.38814 112.94600 30041 ft 427 kts 243°
2026-05-09 07:08 35.37288 112.91537 30388 ft 426 kts 243°
2026-05-09 07:08 35.35740 112.88427 30400 ft 429 kts 243°
2026-05-09 07:09 35.32642 112.82217 30416 ft 426 kts 243°
2026-05-09 07:09 35.29551 112.76038 30397 ft 425 kts 243°
2026-05-09 07:10 35.26468 112.69885 30387 ft 424 kts 243°
2026-05-09 07:10 35.23385 112.63740 30409 ft 424 kts 243°
2026-05-09 07:11 35.20289 112.57582 30397 ft 425 kts 243°
2026-05-09 07:11 35.17217 112.51407 30397 ft 425 kts 243°
2026-05-09 07:12 35.14164 112.45237 30404 ft 424 kts 243°
2026-05-09 07:12 35.11109 112.39078 30401 ft 424 kts 243°
2026-05-09 07:13 35.08051 112.32930 30392 ft 423 kts 243°
2026-05-09 07:13 35.04990 112.26790 30399 ft 423 kts 244°
2026-05-09 07:14 35.01930 112.20660 30394 ft 423 kts 243°
2026-05-09 07:14 34.98891 112.14585 30408 ft 422 kts 243°
2026-05-09 07:15 34.95833 112.08482 30389 ft 422 kts 243°
2026-05-09 07:15 34.92775 112.02389 30387 ft 421 kts 243°
2026-05-09 07:16 34.89721 111.96312 30394 ft 420 kts 243°
2026-05-09 07:16 34.86675 111.90258 30396 ft 419 kts 244°
2026-05-09 07:17 34.83656 111.84193 30400 ft 419 kts 244°
2026-05-09 07:17 34.80632 111.78101 30404 ft 421 kts 244°
2026-05-09 07:18 34.77600 111.72009 30404 ft 422 kts 244°
2026-05-09 07:18 34.74550 111.65897 30388 ft 422 kts 243°
2026-05-09 07:19 34.71499 111.59796 30400 ft 423 kts 243°
2026-05-09 07:19 34.68439 111.53689 30412 ft 423 kts 243°
2026-05-09 07:20 34.65394 111.47620 30408 ft 423 kts 243°
2026-05-09 07:20 34.62824 111.42508 30408 ft 423 kts 243°
2026-05-09 07:21 34.59755 111.36412 30408 ft 423 kts 243°
2026-05-09 07:21 34.56188 111.29337 30409 ft 423 kts 243°
2026-05-09 07:22 34.53635 111.24282 30410 ft 422 kts 243°
2026-05-09 07:22 34.50569 111.18223 30427 ft 421 kts 243°
2026-05-09 07:23 34.47504 111.12172 30408 ft 421 kts 243°
2026-05-09 07:23 34.44433 111.06121 30415 ft 422 kts 243°
2026-05-09 07:24 34.41370 111.00069 30413 ft 421 kts 243°
2026-05-09 07:24 34.38344 110.94007 30408 ft 420 kts 243°
2026-05-09 07:25 34.35327 110.87958 30416 ft 420 kts 243°
2026-05-09 07:25 34.32300 110.81911 30427 ft 421 kts 243°
2026-05-09 07:26 34.29260 110.75852 30429 ft 422 kts 243°
2026-05-09 07:26 34.26208 110.69781 30429 ft 423 kts 243°
2026-05-09 07:27 34.23143 110.63696 30445 ft 424 kts 243°
2026-05-09 07:27 34.20075 110.57615 30442 ft 424 kts 243°
2026-05-09 07:28 34.17000 110.51527 30453 ft 425 kts 243°
2026-05-09 07:28 34.13915 110.45433 30452 ft 425 kts 243°
2026-05-09 07:29 34.10844 110.39331 30459 ft 426 kts 243°
2026-05-09 07:29 34.07779 110.33225 30467 ft 425 kts 243°
2026-05-09 07:30 34.04713 110.27128 30468 ft 425 kts 243°
2026-05-09 07:30 34.01668 110.21084 30457 ft 424 kts 243°
2026-05-09 07:31 33.98596 110.15000 30475 ft 426 kts 243°
2026-05-09 07:31 33.95514 110.08907 30465 ft 426 kts 243°
2026-05-09 07:32 33.92428 110.02816 30479 ft 427 kts 243°
2026-05-09 07:32 33.89327 109.96704 30476 ft 428 kts 243°
2026-05-09 07:33 33.85510 109.87101 30459 ft 424 kts 252°
2026-05-09 07:34 33.83346 109.80502 30485 ft 425 kts 251°
2026-05-09 07:34 33.81141 109.73886 30492 ft 427 kts 251°
2026-05-09 07:35 33.78915 109.67256 30484 ft 428 kts 251°
2026-05-09 07:35 33.76684 109.60623 30479 ft 428 kts 251°
2026-05-09 07:36 33.74446 109.53989 30496 ft 428 kts 251°
2026-05-09 07:36 33.72201 109.47354 30515 ft 429 kts 251°
2026-05-09 07:37 33.69962 109.40750 30480 ft 430 kts 251°
2026-05-09 07:37 33.67714 109.34134 30511 ft 427 kts 251°
2026-05-09 07:38 33.65472 109.27543 30527 ft 427 kts 251°
2026-05-09 07:38 33.63218 109.20927 30509 ft 429 kts 251°
2026-05-09 07:39 33.60953 109.14297 30529 ft 430 kts 251°
2026-05-09 07:39 33.58676 109.07649 30518 ft 432 kts 251°
2026-05-09 07:40 33.56391 109.00986 30522 ft 432 kts 251°
2026-05-09 07:40 33.54099 108.94316 30535 ft 434 kts 251°
2026-05-09 07:41 33.51796 108.87631 30500 ft 434 kts 251°
2026-05-09 07:41 33.49473 108.80966 30515 ft 433 kts 250°
2026-05-09 07:42 33.47126 108.74330 30531 ft 432 kts 250°
2026-05-09 07:42 33.44781 108.67709 30523 ft 431 kts 250°
2026-05-09 07:43 33.42443 108.61108 30545 ft 430 kts 250°
2026-05-09 07:43 33.40109 108.54528 30556 ft 429 kts 250°
2026-05-09 07:44 33.37772 108.47950 30553 ft 429 kts 250°
2026-05-09 07:44 33.35445 108.41410 30544 ft 431 kts 250°
2026-05-09 07:45 33.32945 108.34884 30527 ft 437 kts 240°
2026-05-09 07:45 33.30969 108.32079 30539 ft 445 kts 228°
2026-05-09 07:45 33.28539 108.29754 30546 ft 453 kts 218°
2026-05-09 07:46 33.22706 108.26648 30535 ft 462 kts 207°
2026-05-09 07:46 33.16705 108.23888 30516 ft 462 kts 207°
2026-05-09 07:47 33.10727 108.21095 30505 ft 461 kts 207°
2026-05-09 07:47 33.04768 108.18263 30507 ft 460 kts 207°
2026-05-09 07:48 32.98834 108.15428 30531 ft 459 kts 207°
2026-05-09 07:48 32.92907 108.12599 30521 ft 457 kts 207°
2026-05-09 07:49 32.87004 108.09789 30491 ft 456 kts 207°
2026-05-09 07:49 32.81095 108.06980 30513 ft 459 kts 207°
2026-05-09 07:50 32.75156 108.04160 30516 ft 460 kts 207°
2026-05-09 07:50 32.69220 108.01347 30520 ft 458 kts 207°
2026-05-09 07:51 32.63288 107.98540 30533 ft 460 kts 207°
2026-05-09 07:51 32.57332 107.95725 30535 ft 461 kts 207°
2026-05-09 07:52 32.51378 107.92915 30535 ft 461 kts 207°
2026-05-09 07:52 32.45457 107.90124 30531 ft 461 kts 207°
2026-05-09 07:53 32.39495 107.87319 30522 ft 460 kts 207°
2026-05-09 07:53 32.33544 107.84523 30521 ft 460 kts 207°
2026-05-09 07:54 32.27599 107.81732 30543 ft 460 kts 207°
2026-05-09 07:54 32.21649 107.78943 30529 ft 460 kts 207°
2026-05-09 07:55 32.15709 107.76160 30532 ft 459 kts 207°
2026-05-09 07:55 32.09795 107.73357 30519 ft 457 kts 207°
2026-05-09 07:56 32.03897 107.70555 30537 ft 457 kts 207°
2026-05-09 07:56 31.97992 107.67757 30547 ft 458 kts 207°
2026-05-09 07:57 31.92062 107.64952 30532 ft 460 kts 207°
2026-05-09 07:57 31.86125 107.62149 30530 ft 460 kts 207°
2026-05-09 07:58 31.80223 107.59366 30530 ft 460 kts 207°
2026-05-09 07:58 31.74286 107.56573 30533 ft 460 kts 207°
2026-05-09 07:59 31.68342 107.53779 30545 ft 461 kts 207°
2026-05-09 07:59 31.62387 107.50983 30539 ft 461 kts 207°
2026-05-09 08:00 31.56423 107.48187 30544 ft 461 kts 207°
2026-05-09 08:00 31.50458 107.45394 30550 ft 462 kts 207°
2026-05-09 08:01 31.44498 107.42607 30546 ft 462 kts 207°
2026-05-09 08:01 31.38534 107.39823 30541 ft 461 kts 207°
2026-05-09 08:02 31.32803 107.36593 30557 ft 455 kts 214°
2026-05-09 08:02 31.27281 107.32982 30553 ft 454 kts 214°
2026-05-09 08:03 31.21760 107.29390 30540 ft 454 kts 214°
2026-05-09 08:03 31.16225 107.25851 30526 ft 454 kts 214°
2026-05-09 08:04 31.10725 107.22364 30552 ft 452 kts 214°
2026-05-09 08:04 31.05209 107.18872 30562 ft 451 kts 214°
2026-05-09 08:05 30.99695 107.15384 30565 ft 451 kts 214°
2026-05-09 08:05 30.94179 107.11899 30570 ft 451 kts 214°
2026-05-09 08:06 30.88656 107.08413 30568 ft 451 kts 214°
2026-05-09 08:06 30.83140 107.04936 30570 ft 451 kts 214°
2026-05-09 08:07 30.77625 107.01466 30571 ft 450 kts 214°
2026-05-09 08:07 30.72297 106.97749 30563 ft 440 kts 227°
2026-05-09 08:08 30.68546 106.92320 30582 ft 427 kts 245°
2026-05-09 08:08 30.66331 106.85992 30572 ft 422 kts 252°
2026-05-09 08:08 30.65270 106.82787 29979 ft 428 kts 252°
2026-05-09 08:09 30.64179 106.79579 29185 ft 426 kts 251°
2026-05-09 08:09 30.63078 106.76387 28315 ft 426 kts 251°
2026-05-09 08:09 30.61806 106.73268 27377 ft 432 kts 240°
2026-05-09 08:09 30.59813 106.70610 26477 ft 442 kts 226°
2026-05-09 08:10 30.57342 106.68479 25778 ft 446 kts 213°
2026-05-09 08:10 30.54471 106.67064 25129 ft 450 kts 202°
2026-05-09 08:10 30.51497 106.65962 24449 ft 448 kts 201°
2026-05-09 08:10 30.48526 106.64892 23806 ft 446 kts 201°
2026-05-09 08:11 30.45581 106.63792 23065 ft 443 kts 201°
2026-05-09 08:11 30.42669 106.62671 22382 ft 439 kts 202°
2026-05-09 08:11 30.39776 106.61585 21761 ft 435 kts 200°
2026-05-09 08:11 30.36881 106.60584 21140 ft 432 kts 199°
2026-05-09 08:12 30.31160 106.58653 19908 ft 425 kts 199°
2026-05-09 08:12 30.28328 106.57681 19269 ft 423 kts 200°
2026-05-09 08:12 30.26464 106.57036 18862 ft 422 kts 200°
2026-05-09 08:13 30.23654 106.56063 18202 ft 421 kts 199°
2026-05-09 08:13 30.20853 106.55093 17528 ft 419 kts 199°
2026-05-09 08:13 30.18071 106.54131 16903 ft 416 kts 199°
2026-05-09 08:13 30.15323 106.53183 16596 ft 405 kts 199°
2026-05-09 08:14 30.12662 106.52267 16419 ft 392 kts 199°
2026-05-09 08:14 30.10106 106.51387 16377 ft 377 kts 199°
2026-05-09 08:14 30.07627 106.50533 16204 ft 367 kts 199°
2026-05-09 08:14 30.05215 106.49701 16034 ft 357 kts 199°
2026-05-09 08:15 30.02864 106.48890 15865 ft 348 kts 199°
2026-05-09 08:15 30.00567 106.48099 15686 ft 340 kts 198°
2026-05-09 08:15 29.98320 106.47326 15524 ft 333 kts 198°
2026-05-09 08:15 29.96127 106.46572 15369 ft 326 kts 198°
2026-05-09 08:16 29.93964 106.45892 15195 ft 320 kts 189°
2026-05-09 08:16 29.91779 106.46051 15051 ft 313 kts 162°
2026-05-09 08:16 29.89877 106.47197 14842 ft 309 kts 139°
2026-05-09 08:16 29.88471 106.49046 14573 ft 306 kts 119°
2026-05-09 08:17 29.87686 106.51298 14303 ft 302 kts 100°
2026-05-09 08:17 29.87689 106.53667 14003 ft 295 kts 72°
2026-05-09 08:17 29.88578 106.55744 13727 ft 287 kts 48°
2026-05-09 08:17 29.90032 106.57272 13428 ft 282 kts 30°
2026-05-09 08:18 29.91816 106.58138 13133 ft 277 kts 17°
2026-05-09 08:18 29.93660 106.58771 12844 ft 276 kts 16°
2026-05-09 08:18 29.95471 106.59376 12573 ft 274 kts 16°
2026-05-09 08:18 29.97292 106.59989 12321 ft 272 kts 16°
2026-05-09 08:19 29.99099 106.60608 12037 ft 270 kts 17°
2026-05-09 08:19 30.00894 106.61228 11768 ft 269 kts 17°
2026-05-09 08:19 30.02679 106.61847 11498 ft 267 kts 17°
2026-05-09 08:19 30.04456 106.62463 11214 ft 266 kts 17°
2026-05-09 08:20 30.06238 106.63082 10877 ft 268 kts 17°
2026-05-09 08:20 30.08017 106.63699 10602 ft 266 kts 17°
2026-05-09 08:20 30.09789 106.64314 10367 ft 265 kts 17°
2026-05-09 08:20 30.11537 106.64921 10198 ft 260 kts 18°
2026-05-09 08:21 30.13244 106.65514 10076 ft 252 kts 18°
2026-05-09 08:21 30.14876 106.66165 9935 ft 245 kts 29°
2026-05-09 08:21 30.16110 106.67488 9656 ft 245 kts 57°
2026-05-09 08:21 30.16701 106.69316 9403 ft 247 kts 80°
2026-05-09 08:22 30.16572 106.71291 9134 ft 250 kts 105°
2026-05-09 08:22 30.15755 106.73057 8899 ft 252 kts 129°
2026-05-09 08:22 30.14466 106.74433 8650 ft 253 kts 138°
2026-05-09 08:22 30.13092 106.75701 8370 ft 252 kts 139°
2026-05-09 08:23 30.11721 106.76959 8123 ft 252 kts 139°
2026-05-09 08:23 30.10355 106.78217 7876 ft 251 kts 141°
2026-05-09 08:23 30.08768 106.79019 7589 ft 253 kts 176°
2026-05-09 08:23 30.07069 106.78661 7419 ft 247 kts 200°
2026-05-09 08:24 30.05459 106.78022 7172 ft 241 kts 198°
2026-05-09 08:24 30.03941 106.77460 7111 ft 218 kts 197°
2026-05-09 08:24 30.02550 106.76962 6884 ft 205 kts 197°
2026-05-09 08:24 30.01231 106.76499 6674 ft 189 kts 197°
2026-05-09 08:25 30.00005 106.76071 6394 ft 174 kts 197°
2026-05-09 08:25 29.98910 106.75691 6185 ft 165 kts 197°
2026-05-09 08:25 29.97825 106.75314 5960 ft 161 kts 197°
2026-05-09 08:25 29.96754 106.74942 5744 ft 160 kts 197°
2026-05-09 08:26 29.95684 106.74570 5533 ft 161 kts 197°
2026-05-09 08:26 29.94613 106.74198 5310 ft 160 kts 197°
2026-05-09 08:26 29.93553 106.73830 5108 ft 159 kts 197°
2026-05-09 08:26 29.92500 106.73464 4898 ft 158 kts 197°
2026-05-09 08:27 29.91450 106.73099 4688 ft 157 kts 197°
2026-05-09 08:27 29.90407 106.72736 4488 ft 157 kts 197°
2026-05-09 08:27 29.89365 106.72374 4280 ft 156 kts 197°
2026-05-09 08:27 29.88327 106.72014 4072 ft 155 kts 198°
2026-05-09 08:28 29.87299 106.71656 3869 ft 154 kts 198°
2026-05-09 08:28 29.86270 106.71299 3666 ft 154 kts 198°
2026-05-09 08:28 29.85245 106.70943 3466 ft 154 kts 197°
2026-05-09 08:28 29.84220 106.70586 3261 ft 153 kts 197°
2026-05-09 08:29 29.83201 106.70232 3056 ft 153 kts 197°
2026-05-09 08:29 29.82183 106.69878 2857 ft 153 kts 197°
2026-05-09 08:29 29.81165 106.69525 2655 ft 153 kts 198°
2026-05-09 08:29 29.80152 106.69172 2449 ft 152 kts 198°
2026-05-09 08:30 29.79138 106.68820 2246 ft 153 kts 198°
2026-05-09 08:30 29.78116 106.68465 2042 ft 153 kts 198°
2026-05-09 08:30 29.77107 106.68114 1831 ft 151 kts 197°
2026-05-09 08:30 29.76102 106.67765 1685 ft 150 kts 197°
2026-05-09 08:31 29.75088 106.67416 1459 ft 152 kts 197°
2026-05-09 08:31 29.74084 106.67072 1342 ft 143 kts 198°
2026-05-09 08:31 29.73243 106.66781 1322 ft 110 kts 204°
2026-05-09 08:31 29.72661 106.66574 1329 ft 45 kts 196°
2026-05-09 08:32 29.72613 106.66545 1329 ft 0 kts 216°